Location: Taipo
(41.0000°S, 175.9500°E)
Time: 01:46:10
(UTC+00:00)

S3M - Visible Passes

Search period start: 15 July 2024 00:00
Search period end: 25 July 2024 00:00
Orbit: 949 x 1004 km, 83.0° (Epoch: 14 July)

Date Brightness Start Highest point End Pass type
(mag) Time Alt. Az. Time Alt. Az. Time Alt. Az.
15 Jul 4.5 06:02:05 10° NNE 06:07:34 35° E 06:13:10 10° SSE visible
15 Jul 5.5 07:47:25 10° NW 07:52:55 34° WSW 07:58:33 10° S visible
15 Jul 5.8 16:57:50 10° SSE 17:03:25 31° ESE 17:09:00 10° NE visible
15 Jul 4.4 18:42:57 10° SSW 18:48:54 42° W 18:54:52 10° NNW visible
16 Jul 3.9 06:26:55 10° N 06:32:58 65° E 06:39:11 10° SSE visible
16 Jul 6.3 08:14:40 10° WNW 08:18:56 19° WSW 08:23:16 10° SSW visible
16 Jul 4.8 17:22:59 10° S 17:29:17 54° ESE 17:35:32 10° NNE visible
17 Jul 4.2 06:52:24 10° NNW 06:58:32 71° W 07:04:50 10° S visible
17 Jul 6.6 16:05:11 10° SSE 16:08:42 15° ESE 16:12:13 10° E visible
17 Jul 4.0 17:48:29 10° S 17:54:57 86° W 18:01:22 10° N visible
18 Jul 4.7 05:33:50 10° NE 05:39:06 31° E 05:44:29 10° SSE visible
18 Jul 5.3 07:18:36 10° NW 07:24:18 39° WSW 07:30:09 10° S visible
18 Jul 5.9 16:29:29 10° SSE 16:34:49 27° ESE 16:40:07 10° NE visible
18 Jul 4.3 18:14:18 10° SSW 18:20:26 49° W 18:26:33 10° NNW visible
19 Jul 4.1 05:58:28 10° NNE 06:04:28 56° E 06:10:35 10° SSE visible
19 Jul 6.2 07:45:35 10° WNW 07:50:16 22° WSW 07:55:02 10° SSW visible
19 Jul 5.0 16:54:31 10° S 17:00:43 47° ESE 17:06:52 10° NNE visible
19 Jul 4.9 18:40:32 10° SSW 18:45:46 27° W 18:50:59 10° NW visible
20 Jul 4.1 06:23:49 10° N 06:29:59 81° W 06:36:19 10° S visible
20 Jul 6.8 08:14:12 10° W 08:16:27 12° WSW 08:18:43 10° SW visible
20 Jul 6.7 15:37:15 10° SE 15:40:01 13° ESE 15:42:47 10° E visible
20 Jul 4.1 17:19:56 10° S 17:26:26 83° E 17:32:51 10° N visible
21 Jul 5.1 06:49:49 10° NNW 06:55:42 45° WSW 07:01:44 10° S visible
21 Jul 6.1 16:01:09 10° SSE 16:06:12 23° ESE 16:11:11 10° ENE visible
21 Jul 4.1 17:45:41 10° SSW 17:51:58 56° W 17:58:12 10° NNW visible
22 Jul 6.1 07:16:35 10° NW 07:21:37 25° WSW 07:26:45 10° SSW visible
22 Jul 5.2 16:26:05 10° S 16:32:08 41° ESE 16:38:08 10° NE visible
22 Jul 4.7 18:11:48 10° SSW 18:17:19 31° W 18:22:50 10° NW visible
23 Jul 4.0 05:55:15 10° N 06:01:26 88° E 06:07:48 10° S visible
23 Jul 6.7 07:44:35 10° W 07:47:44 14° WSW 07:50:56 10° SW visible
23 Jul 6.8 15:09:42 10° SE 15:11:19 11° ESE 15:12:56 10° ESE visible
23 Jul 4.2 16:51:26 10° S 16:57:54 73° E 17:04:18 10° NNE visible
23 Jul 5.3 18:38:34 10° SW 18:42:30 17° W 18:46:27 10° WNW visible
24 Jul 4.9 06:21:06 10° NNW 06:27:07 52° WSW 06:33:17 10° S visible
24 Jul 6.2 15:32:53 10° SSE 15:37:33 20° ESE 15:42:10 10° ENE visible
24 Jul 4.0 17:17:05 10° SSW 17:23:29 65° W 17:29:48 10° N visible
